Date,TemperatureHighF,TemperatureAvgF,TemperatureLowF,DewpointHighF,DewpointAvgF,DewpointLowF,HumidityHigh,HumidityAvg,HumidityLow,PressureMaxIn,PressureMinIn,WindSpeedMaxMPH,WindSpeedAvgMPH,GustSpeedMaxMPH,PrecipitationSumIn
2013-10-1,84.1,61.1,41.2,41.3,36.7,31.4,76,45,19,30.08,29.89,6,0,6,0.00
2013-10-2,81.7,57.0,36.0,38.6,33.1,22.7,87,48,13,30.09,29.89,8,0,8,0.00
2013-10-3,78.3,56.4,35.6,38.5,32.0,26.3,83,46,15,30.01,29.76,7,0,11,0.00
2013-10-4,65.3,54.0,46.2,34.8,20.7,6.3,60,31,11,30.19,29.83,15,1,15,0.00
2013-10-5,64.8,49.4,33.2,27.6,21.1,17.0,57,34,18,30.37,30.19,10,0,10,0.00
2013-10-6,75.7,51.5,33.7,28.1,22.7,8.0,68,38,10,30.45,30.27,8,0,8,0.00
2013-10-7,78.2,52.2,29.5,32.7,25.3,21.2,79,41,14,30.41,30.14,10,0,10,0.00
2013-10-8,77.3,55.6,36.4,36.7,29.9,24.5,71,41,18,30.18,29.86,18,0,18,0.00
2013-10-9,75.0,56.0,36.3,44.1,34.0,23.6,80,49,15,30.01,29.88,11,0,11,0.00
2013-10-10,67.9,50.2,37.9,46.9,38.3,28.0,89,66,30,30.04,29.67,28,1,28,0.09
2013-10-11,60.2,44.3,29.2,38.4,33.3,27.7,95,68,40,30.25,30.04,12,1,12,0.00
2013-10-12,68.0,47.9,30.0,39.4,34.6,28.3,96,65,27,30.35,30.17,15,0,15,0.00
2013-10-13,73.5,54.8,36.8,50.2,42.1,34.7,94,66,34,30.30,29.97,18,1,18,0.01
2013-10-14,66.6,54.9,39.0,50.2,34.4,18.1,95,53,17,30.12,29.95,10,1,10,0.00
2013-10-15,62.9,45.5,28.5,38.1,30.7,24.9,88,60,32,30.25,30.08,11,1,11,0.03
2013-10-16,59.4,45.8,36.6,38.3,32.0,18.8,87,62,26,30.26,30.13,10,1,10,0.02
2013-10-17,65.5,44.1,27.7,30.4,26.7,21.1,90,56,20,30.32,30.07,6,0,6,0.00
2013-10-18,63.4,42.6,24.9,30.1,24.2,18.3,88,55,20,30.36,30.14,11,0,11,0.00
2013-10-19,66.3,43.0,24.8,29.6,25.3,19.5,94,57,18,30.40,30.17,7,0,7,0.00
2013-10-20,68.9,47.2,26.2,28.1,23.4,16.2,84,47,16,30.23,29.99,7,0,7,0.00
2013-10-21,64.8,49.9,36.3,34.3,30.3,25.4,72,49,25,30.28,30.09,10,0,10,0.00
2013-10-22,71.2,46.1,28.6,31.0,25.8,17.9,84,52,14,30.45,30.26,7,0,7,0.00
2013-10-23,73.8,47.5,25.9,29.2,25.5,21.2,84,49,16,30.42,30.18,5,0,5,0.00
2013-10-24,74.8,51.4,27.6,40.4,28.7,23.1,85,47,20,30.39,30.17,14,0,14,0.00
2013-10-25,63.4,52.3,46.6,49.5,45.6,39.7,96,79,54,30.37,30.11,13,0,14,0.19
2013-10-26,68.1,51.9,40.1,44.9,39.6,33.3,94,67,30,30.38,30.25,9,0,9,0.00
2013-10-27,68.0,48.2,32.1,40.8,36.7,30.8,97,69,35,30.33,30.01,10,0,10,0.00
2013-10-28,66.8,48.1,36.1,42.8,34.2,25.4,92,64,22,30.08,29.94,13,0,13,0.00
2013-10-29,67.8,52.2,34.0,35.5,30.1,24.9,82,49,21,30.15,29.88,17,1,17,0.00
2013-10-30,59.9,45.9,36.1,41.0,35.6,26.2,93,71,30,30.03,29.84,22,1,22,0.08
2013-10-31,53.6,43.2,34.8,32.2,28.9,25.7,82,59,36,30.23,30.03,13,1,13,0.00